Regional Weather Roundup
Issued by NWS Newport/Morehead, NC

Current Version | Previous Version | Text Only | Print | Product List | Glossary Off
Versions: 1 2 3 4 5 6 7 8 9 10 11 12 13 14 15 16 17 18 19 20 21 22 23 24 25 26 27 28 29 30 31 32 33 34 35 36 37 38 39 40 41 42 43 44 45 46 47 48 49 50
000 ASUS42 KMHX 220014 RWRMHX WEATHER ROUNDUP FOR EASTERN NORTH CAROLINA NATIONAL WEATHER SERVICE NEWPORT/MOREHEAD CITY NC 700 PM EST SUN JAN 21 2018 NOTE: "FAIR" INDICATES FEW OR NO CLOUDS BELOW 12,000 FEET WITH NO SIGNIFICANT WEATHER AND/OR OBSTRUCTIONS TO VISIBILITY NCZ015>017-031-032-045>047-102-103-220100- NORTH COAST CITY SKY/WX TMP DP RH WIND PRES REMARKS EDENTON FAIR 51 36 55 E5 30.24R ELIZABETH CITY FAIR 49 42 77 SE5 30.23R KITTY HAWK FAIR 43 34 71 CALM 30.23R MANTEO FAIR 43 39 86 CALM 30.24S $$ NCZ045>047-081-094-103-104-220100- CENTRAL COAST CITY SKY/WX TMP DP RH WIND PRES REMARKS FRISCO NOT AVBL $$ NCZ095-097-098-100-101-220100- SOUTHERN COAST CITY SKY/WX TMP DP RH WIND PRES REMARKS BEAUFORT FAIR 46 43 89 CALM 30.24R CEDAR ISLAND NOT AVBL JACKSONVILLE FAIR 51 41 68 S3 30.22R PINEY ISLAND NOT AVBL WILMINGTON FAIR 54 39 57 CALM 30.22S $$ NCZ011>013-027>030-043-044-078>080-089-090>093-098-220100- COASTAL PLAIN CITY SKY/WX TMP DP RH WIND PRES REMARKS AHOSKIE FAIR 47 38 71 CALM 30.23R CLINTON FAIR 52 44 75 CALM 30.21S ELIZABETHTOWN NOT AVBL GOLDSBORO FAIR 51 42 71 CALM 30.20R GREENVILLE FAIR 52 37 58 CALM 30.23R HAVELOCK NOT AVBL KENANSVILLE FAIR 50 45 81 CALM 30.22R KINSTON FAIR 50 43 76 CALM 30.22S NEW BERN FAIR 50 42 74 CALM 30.24R RICHLANDS FAIR 54 42 64 CALM 30.23R ROCKY MOUNT NOT AVBL WASHINGTON FAIR 51 37 59 SE5 30.23R WHITEVILLE FAIR 57 40 52 CALM 30.21S $$ AMZ130-135-150-152-154-156-158-170-250-252-270-ANZ085-086-088-633-658-670-220100- MARINE OBSERVATIONS STATION/POSITION TIME TEMP WIND PRES WAVE SWELL AIR SEA DIR/SP/G HT/PER HT/PER (UTC) (F) (DEG/KT/KT) (MB) (FT/S) (FT/S) CHESAPEAKE LIGHT NOT AVBL 64 E VA BEACH 2350 52 59 350/ 6/ 6 1024.2 2/ 6 2/ 6 DUCK 2348 44 41 150/ 6/ 6 1023.5 2 E DUCK 0000 41 N/A 1/10 OREGON INLET 2348 180/ 3/ 3 N/A 13E OREGON INLT 2348 41 N/A 1/10 2/10 HATTERAS CG 2348 49 51 280/ 2/ 3 1023.7 DIAMOND BUOY 2350 60 320/ 8/ 10 1024.1 2/11 2/11 CAPE LOOKOUT 0000 260/ 3/ 3 1024.1 BEAUFORT LAB 2348 47 47 CALM 1023.9 30 SE NEW RVR IN 2308 59 59 220/ 6/ 8 1023.6 30 SE NEW RVR IN 0000 60 N/A 2/11 27 SE WRIGHTSVLE 2308 58 58 220/ 6/ 8 1023.4 5 SE WRIGHTSVLE 2308 49 46 210/ 6/ 8 1023.0 225 S CAPE HAT 2350 65 70 20/ 6/ 8 1024.2 3/10 2/10 41 SE CHARLESTON 0000 62 70 160/ 4/ 4 1023.5 $$

USA.gov is the U.S. government's official web portal to all federal, state and local government web resources and services.